Regional Weather Roundup
Issued by NWS Jackson, KY

Home | Current Version | Previous Version | Graphics & Text | Print | Product List | Glossary On
Versions: 1 2 3 4 5 6 7 8 9 10 11 12 13 14 15 16 17 18 19 20 21 22 23 24 25 26 27
000
ASUS43 KJKL 160410
RWRJKL

EAST KENTUCKY HOURLY WEATHER ROUNDUP
NATIONAL WEATHER SERVICE JACKSON KY
1100 PM EST SUN JAN 15 2017

NOTE: "FAIR" INDICATES FEW OR NO CLOUDS BELOW 12,000 FEET WITH
NO SIGNIFICANT WEATHER AND/OR OBSTRUCTIONS TO VISIBILITY.

* THESE REPORTS ARE NOT UNDER NWS QUALITY CONTROL AND MAY NOT
  REPORT WEATHER SUCH AS PRECIPITATION AND FOG.

KYZ079-080-083-085-087-088-110-112-115-119-120-160500
...EASTERN KENTUCKY...

CITY           SKY/WX    TMP DP  RH WIND       PRES   REMARKS
JACKSON        CLOUDY    41  39  93 CALM      30.28F FOG
LONDON         FOG       44  42  93 CALM      30.28F VSB 1/2
SOMERSET*      FOG       43  43 100 CALM      30.30F VSB 3/4
MONTICELLO*    LGT RAIN  46  46 100 N13       30.30F VSB 1/2
WILLIAMSBURG*  CLOUDY    46  46 100 CALM      30.28F
MIDDLESBORO*   CLOUDY    50  50 100 CALM      30.29S
HARLAN APT*    CLOUDY    52  50  93 CALM      30.28S
PIKE CO APT*   CLOUDY    42  42 100 SE3       30.28F
BIG SANDY APT* CLOUDY    40  40 100 NE3       30.30F FOG
MOREHEAD APT*  CLOUDY    39  37  93 NE3       30.33R
ASHLAND*       CLOUDY    39  37  93 CALM      30.33F
$$

KYZ035-036-041-042-044-050-067-078-099-160500
...CENTRAL KENTUCKY...

CITY           SKY/WX    TMP DP  RH WIND       PRES   REMARKS
MT STERLING*   CLOUDY    37  37 100 NE3       30.32S
FLEMING/MASON* CLOUDY    37  37  99 E7        30.33F FOG     WCI  31
DANVILLE*      CLOUDY    41  41 100 CALM      30.29F
LEXINGTON      CLOUDY    41  38  89 NE8       30.29F
FRANKFORT      CLOUDY    40  37  89 NE6       30.28F
LOUISVILLE     CLOUDY    41  38  89 E5        30.29F
LEBANON*       CLOUDY    41  41 100 CALM      30.29F
GLASGOW*       CLOUDY   N/A N/A N/A E5        30.28S FOG
BOWLING GREEN  CLOUDY    45  44  97 E3        30.29R FOG
$$

KYZ091>093-OHZ055-061-077-WVZ005-015-034-035-042-160500
...SOUTHERN OHIO/WEST VIRGINIA...

CITY           SKY/WX    TMP DP  RH WIND       PRES   REMARKS
COVINGTON      FOG       37  36  96 E8        30.31S VSB 1   WCI  31
COLUMBUS       CLOUDY    33  28  81 E5        30.34F WCI  29
DAYTON         CLOUDY    32  30  92 SE7       30.34S FOG     WCI  26
WILMINGTON     FOG       34  34 100 E6        30.33S VSB 1/2 WCI  29
HUNTINGTON     CLOUDY    39  37  92 N6        30.32F FOG     WCI  35
CHARLESTON     LGT RAIN  40  39  97 CALM      30.32S VSB 1/2
BECKLEY        LGT RAIN  45  43  93 S3        30.29R FOG
BLUEFIELD      LGT RAIN  43  43 100 CALM      30.29S FOG
LOGAN CO APT*  CLOUDY    41  41 100 CALM      30.29S FOG
$$

VAZ002-007-008-TNZ017-027-036-066-071-160500
...SOUTHWEST VIRGINIA/EAST TENNESSEE...

CITY           SKY/WX    TMP DP  RH WIND       PRES   REMARKS
WISE*          FOG       48  48 100 CALM      30.30S VSB 1
JONESVILLE*    CLOUDY    54  54 100 CALM      30.30F
ABINGDON*      CLOUDY    56  56 100 CALM      30.29F FOG
BRISTOL        CLOUDY    54  53  97 CALM      30.28F
MORRISTOWN*    FOG       55  55 100 NE3       30.26F VSB 0
SEVIERVILLE*   CLOUDY    54  52  94 E3        30.26S VSB 0
KNOXVILLE      PTCLDY    56  54  93 N6        30.25S
LAFOLLETTE*    FOG       52  52 100 CALM      30.30S VSB 1/2
OAK RIDGE      MOCLDY    55  52  89 CALM      30.27F
CROSSVILLE     CLOUDY    51  50  96 CALM      30.28R
NASHVILLE      CLOUDY    52  49  89 NE5       30.26F
$$

...KEY TO REMARKS...
VSB - VISIBILITY IN MILES
WCI - WIND CHILL INDEX
HX  - HEAT INDEX

$$




USA.gov is the U.S. government's official web portal to all federal, state and local government web resources and services.